Weather History for Lewisburg, WV

Change the Weather History Date:

Sunday, March 25, 2012

  Actual Average Record
Temperature  
Mean Temperature 56 °F 42 °F  
Max Temperature 62 °F 55 °F 79 °F (2007)
Min Temperature 50 °F 29 °F 19 °F (2008)
Degree Days  
Heating Degree Days 9    
Month to date heating degree days  
Cooling Degree Days 0    
Month to date cooling degree days  
Year to date cooling degree days  
Growing Degree Days 6 (Base 50)    
Moisture  
Dew Point 50 °F    
Average Humidity 87    
Maximum Humidity 100    
Minimum Humidity 59    
Precipitation  
Precipitation 0.14 in 0.12 in 1.30 in (1978)
Month to date precipitation 2.75  
Year to date precipitation 8.78  
Snow  
Snow 0.00 in - - ()
Month to date snowfall  
Snow Depth -    
Sea Level Pressure  
Sea Level Pressure 29.82 in    
Wind  
Wind Speed 1 mph (North)    
Max Wind Speed 14 mph    
Max Gust Speed 17 mph    
Visibility 7 miles    
Events Fog , Rain    
T = Trace of Precipitation, MM = Missing Value Source: NWS Daily Summary

Daily Weather History Graph

Daily Weather History Graph

Search for Another Location

Airport:

Trip Planner

Search our weather history database for the weather conditions in past years. The results will help you decide how hot, cold, wet, or windy it might be!

Date:

Astronomy

Mar. 25, 2012 Rise Set
Actual Time 7:16 AM EDT 7:38 PM EDT
Civil Twilight 6:50 AM EDT 8:04 PM EDT
Nautical Twilight 6:19 AM EDT 8:35 PM EDT
Astronomical Twilight 5:48 AM EDT 9:07 PM EDT
Moon 8:32 AM EDT (3/25) 10:48 PM EDT (3/25)
Length of Visible Light 13h 14m
Length of Day
12h 21m
Waxing Crescent, 8% of the Moon is Illuminated
Mar 25
Waxing Crescent
Mar 30
First Quarter
Apr 6
Full
Apr 13
Last Quarter
Apr 21
New

Hourly Weather History & Observations

Time (EDT) Temp. Dew Point Humidity Pressure Visibility Wind Dir Wind Speed Gust Speed Precip Events Conditions
12:35 AM 51.8 °F 50.0 °F 94% 29.85 in 10.0 mi Calm Calm - N/A   Mostly Cloudy
12:55 AM 51.8 °F 50.0 °F 94% 29.84 in 10.0 mi Calm Calm - N/A   Scattered Clouds
1:15 AM 50.0 °F 48.2 °F 94% 29.84 in 10.0 mi Calm Calm - N/A   Scattered Clouds
1:35 AM 50.0 °F 48.2 °F 94% 29.85 in 10.0 mi Calm Calm - N/A   Mostly Cloudy
1:55 AM 50.0 °F 48.2 °F 94% 29.84 in 7.0 mi Calm Calm - N/A   Mostly Cloudy
2:15 AM 50.0 °F 48.2 °F 94% 29.84 in 10.0 mi Calm Calm - N/A   Overcast
2:35 AM 50.0 °F 48.2 °F 94% 29.83 in 2.5 mi Calm Calm - N/A   Overcast
2:55 AM 50.0 °F 48.2 °F 94% 29.82 in 4.0 mi Calm Calm - N/A   Overcast
3:15 AM 50.0 °F 48.2 °F 94% 29.81 in 5.0 mi Calm Calm - N/A   Overcast
3:35 AM 50.0 °F 48.2 °F 94% 29.80 in 2.5 mi Calm Calm - N/A   Mostly Cloudy
3:55 AM 50.0 °F 48.2 °F 94% 29.80 in 1.0 mi Calm Calm - N/A   Overcast
4:15 AM 50.0 °F 46.4 °F 87% 29.79 in 1.0 mi Calm Calm - N/A   Overcast
4:35 AM 50.0 °F 46.4 °F 87% 29.79 in 0.5 mi Calm Calm - N/A Fog Fog
4:55 AM 50.0 °F 48.2 °F 94% 29.79 in 0.5 mi NNE 4.6 mph - N/A Fog Fog
5:15 AM 50.0 °F 48.2 °F 94% 29.79 in 1.0 mi Calm Calm - N/A   Light Drizzle
5:35 AM 50.0 °F 48.2 °F 94% 29.79 in 5.0 mi Calm Calm - N/A   Drizzle
5:55 AM 50.0 °F 48.2 °F 94% 29.80 in 5.0 mi Calm Calm - 0.02 in Rain Light Rain
6:15 AM 50.0 °F 48.2 °F 94% 29.81 in 5.0 mi Calm Calm - 0.01 in   Drizzle
6:35 AM 50.0 °F 50.0 °F 100% 29.80 in 5.0 mi Calm Calm - 0.03 in Rain Light Rain
6:55 AM 50.0 °F 50.0 °F 100% 29.80 in 7.0 mi Calm Calm - 0.04 in Rain Light Rain
7:15 AM 50.0 °F 48.2 °F 94% 29.80 in 4.0 mi Calm Calm - N/A   Overcast
7:35 AM 50.0 °F 48.2 °F 94% 29.81 in 3.0 mi Calm Calm - N/A   Light Drizzle
7:55 AM 50.0 °F 50.0 °F 100% 29.82 in 5.0 mi Calm Calm - 0.01 in Rain Light Rain
8:15 AM 50.0 °F 50.0 °F 100% 29.82 in 5.0 mi Calm Calm - N/A Rain Light Rain
8:35 AM 50.0 °F 50.0 °F 100% 29.83 in 5.0 mi North 3.5 mph - N/A Rain Light Rain
8:55 AM 50.0 °F 50.0 °F 100% 29.83 in 5.0 mi Calm Calm - 0.01 in Rain Light Rain
9:15 AM 51.8 °F 50.0 °F 94% 29.83 in 7.0 mi Calm Calm - 0.01 in   Light Drizzle
9:35 AM 51.8 °F 50.0 °F 94% 29.83 in 5.0 mi Calm Calm - 0.01 in Rain Light Rain
9:55 AM 51.8 °F 50.0 °F 94% 29.83 in 7.0 mi Calm Calm - 0.02 in Rain Light Rain
10:15 AM 51.8 °F 50.0 °F 94% 29.83 in 5.0 mi Calm Calm - 0.01 in Rain Rain
10:35 AM 51.8 °F 50.0 °F 94% 29.83 in 10.0 mi Calm Calm - 0.03 in Rain Light Rain
10:55 AM 53.6 °F 51.8 °F 94% 29.84 in 10.0 mi Calm Calm - 0.03 in Rain Light Rain
11:15 AM 53.6 °F 51.8 °F 94% 29.83 in 10.0 mi Calm Calm - N/A Rain Light Rain
11:35 AM 55.4 °F 51.8 °F 88% 29.84 in 10.0 mi Calm Calm - 0.01 in Rain Light Rain
12:15 PM 57.2 °F 51.8 °F 82% 29.84 in 10.0 mi Calm Calm - N/A   Overcast
12:35 PM 57.2 °F 53.6 °F 88% 29.83 in 10.0 mi South 3.5 mph - N/A   Overcast
12:55 PM 57.2 °F 53.6 °F 88% 29.83 in 10.0 mi Calm Calm - N/A   Overcast
1:15 PM 59.0 °F 53.6 °F 82% 29.84 in 10.0 mi Calm Calm - N/A   Overcast
1:35 PM 59.0 °F 53.6 °F 82% 29.84 in 10.0 mi Calm Calm - N/A   Overcast
1:55 PM 60.8 °F 51.8 °F 72% 29.83 in 10.0 mi NNW 4.6 mph - N/A   Overcast
2:15 PM 60.8 °F 50.0 °F 68% 29.83 in 10.0 mi NNW 6.9 mph - N/A   Overcast
2:35 PM 60.8 °F 50.0 °F 68% 29.82 in 10.0 mi North 8.1 mph 16.1 mph N/A   Overcast
2:55 PM 60.8 °F 50.0 °F 68% 29.82 in 10.0 mi North 9.2 mph - N/A   Overcast
3:15 PM 62.6 °F 50.0 °F 63% 29.82 in 10.0 mi North 13.8 mph - N/A   Overcast
3:35 PM 62.6 °F 50.0 °F 63% 29.81 in 10.0 mi North 6.9 mph - N/A   Overcast
3:55 PM 62.6 °F 50.0 °F 63% 29.81 in 10.0 mi North 11.5 mph 17.3 mph N/A   Overcast
4:15 PM 62.6 °F 50.0 °F 63% 29.82 in 10.0 mi North 8.1 mph - N/A   Overcast
4:35 PM 62.6 °F 50.0 °F 63% 29.82 in 10.0 mi North 9.2 mph - N/A   Overcast
4:55 PM 62.6 °F 50.0 °F 63% 29.82 in 10.0 mi North 4.6 mph - N/A   Overcast
5:15 PM 62.6 °F 48.2 °F 59% 29.83 in 10.0 mi North 8.1 mph - N/A   Overcast
5:35 PM 60.8 °F 50.0 °F 68% 29.84 in 10.0 mi North 9.2 mph - N/A Rain Light Rain
5:55 PM 60.8 °F 50.0 °F 68% 29.84 in 10.0 mi NNW 8.1 mph - N/A Rain Light Rain
6:15 PM 60.8 °F 50.0 °F 68% 29.85 in 10.0 mi NNW 6.9 mph - N/A   Light Drizzle
6:35 PM 59.0 °F 50.0 °F 72% 29.86 in 10.0 mi NNW 9.2 mph - N/A   Light Drizzle
6:55 PM 59.0 °F 51.8 °F 77% 29.86 in 10.0 mi NNW 6.9 mph - N/A Rain Light Rain
7:15 PM 57.2 °F 51.8 °F 82% 29.87 in 10.0 mi NNW 6.9 mph - N/A   Drizzle
7:35 PM 57.2 °F 51.8 °F 82% 29.87 in 10.0 mi NNW 3.5 mph - 0.01 in Rain Light Rain
7:55 PM 57.2 °F 51.8 °F 82% 29.88 in 10.0 mi Calm Calm - 0.01 in Rain Rain
8:15 PM 55.4 °F 51.8 °F 88% 29.88 in 10.0 mi Calm Calm - N/A   Overcast
8:35 PM 55.4 °F 51.8 °F 88% 29.88 in 7.0 mi Calm Calm - N/A   Overcast
8:55 PM 55.4 °F 53.6 °F 94% 29.89 in 7.0 mi Calm Calm - N/A   Overcast
9:15 PM 55.4 °F 51.8 °F 88% 29.89 in 10.0 mi Calm Calm - N/A   Overcast
9:35 PM 55.4 °F 51.8 °F 88% 29.90 in 5.0 mi Calm Calm - N/A   Overcast
9:55 PM 55.4 °F 51.8 °F 88% 29.90 in 10.0 mi Calm Calm - N/A   Overcast
10:15 PM 55.4 °F 51.8 °F 88% 29.91 in 10.0 mi Calm Calm - N/A   Overcast
10:35 PM 59.0 °F 50.0 °F 72% 29.91 in 10.0 mi NNW 3.5 mph - N/A   Overcast
10:55 PM 59.0 °F 50.0 °F 72% 29.92 in 10.0 mi NNW 5.8 mph - N/A   Overcast
11:15 PM 57.2 °F 50.0 °F 77% 29.92 in 10.0 mi NNW 10.4 mph - N/A   Light Drizzle
11:35 PM 57.2 °F 50.0 °F 77% 29.93 in 10.0 mi NNW 9.2 mph - N/A   Overcast
11:55 PM 57.2 °F 50.0 °F 77% 29.93 in 10.0 mi NNW 8.1 mph - N/A   Overcast